Find Starlink 11507

NORAD ID: 62519 Int'l Des: 2025-004 Owner: SPXS Country: US Constellation: starlink operational
LEOCIRCULAR

实时位置

正在加载3D地球...

关于 Starlink 11507

正在加载描述...

即将过境

Passes for default location (London). Set your location on the main map for personalized predictions.

高度历史

Loading altitude history...

两行轨道根数

1 62519U 25004J 26125.25633820 .00341715 00000-0 25384-2 0 9994
2 62519 43.0034 89.8817 0004433 252.0783 107.9602 15.71025152 76109
Epoch: May 5, 2026 • Age: 19 hours

当前状态

高度 354.5 km
速度 7.70 km/s
星下点 -8.19°S, 30.91°E
发射日期 Jan 8, 2025
运行时间 1.3 years
类型 internet

技术详情

分类 Payload
质量 960.00 kg
干质量 910.00 kg
总质量 960.00 kg
长度 0.30 m
直径 4.10 m
跨度 29.00 m
形状 Box + pan
制造商 SPXS
平台类型 Starlink V2MD
阶段状态 In Orbit
所有者/国家 SPXS/US

Most Searched